Regional Weather Roundup
Issued by NWS

Home | Current Version | Previous Version | Text Only | Print | Product List | Glossary Off
Versions: 1 2 3 4 5 6 7 8 9 10 11 12 13 14 15 16 17 18 19 20 21 22 23 24 25 26 27 28 29 30 31 32 33 34 35 36 37 38 39 40 41 42 43 44 45 46 47 48 49 50

000
ASUS43 KLOT 200106
RWRIL

ILLINOIS REGIONAL WEATHER ROUNDUP
NATIONAL WEATHER SERVICE CHICAGO/ROMEOVILLE IL
800 PM CDT SAT APR 19 2014

NOTE: "FAIR" INDICATES FEW OR NO CLOUDS BELOW 12,000 FEET WITH NO
SIGNIFICANT WEATHER AND/OR OBSTRUCTIONS TO VISIBILITY.

* THESE STATIONS ARE NOT UNDER NWS QUALITY CONTROL. THEY ALSO MAY NOT
  REPORT WEATHER SUCH AS PRECIPITATION OR FOG.

ILZ001-002-007-009-015-016-024-200200-
NORTHWEST ILLINOIS

CITY           SKY/WX    TMP DP  RH WIND       PRES   REMARKS
MOLINE         PTCLDY    65  34  31 SE8       30.13S
STERLING*      MOCLDY    64  34  32 S6        30.16S
SAVANNA*       MOCLDY    63  32  31 SE6       30.15R
$$

ILZ003-004-008-010-011-017-018-200200-
NORTH CENTRAL ILLINOIS

CITY           SKY/WX    TMP DP  RH WIND       PRES   REMARKS
ROCKFORD       CLOUDY    62  33  33 SE12      30.19S
FREEPORT*      MOCLDY    59  37  44 SE10      30.18S
ROCHELLE*      PTCLDY    58  36  43 SE10      30.19S
DE KALB*       PTCLDY    57  35  42 SE9       30.21S
$$

ILZ005-006-012>014-019>023-200200-
NORTHEAST ILLINOIS

CITY           SKY/WX    TMP DP  RH WIND       PRES   REMARKS
CHICAGO-OHARE  MOCLDY    57  35  43 E8        30.22S
CHICAGO-MIDWAY MOCLDY    55  37  50 E7        30.23S
AURORA         PTCLDY    56  36  47 SE9       30.20S
LANSING*       PTCLDY    60  35  38 SE6       30.24S
WAUKEGAN       CLOUDY    44  33  65 E5        30.23S
DUPAGE AIRPORT PTCLDY    59  35  40 SE7       30.21R
KANKAKEE*      MOCLDY    59  39  47 E8        30.23S
WHEELING       MOCLDY    52  36  54 CALM      30.24R
MORRIS*        PTCLDY    61  31  31 SE8       30.21R
ROMEOVILLE*    PTCLDY    57  36  44 SE9       30.22R
NORTHERLY ISL    N/A     46  37  71 N1          N/A
$$

LMZ740>746-200200-
SOUTHERN LAKE MICHIGAN

STATION/POSITION SKY/WX   TEMP    WIND        PRES    VSBY  WAVE
                          AIR SEA DIR/SP/G                  HT/PER
                          (F)     (DEG/KT/KT) (MB)    (MI)  (FT/S)
WAUKEGAN HARBOR            43      50/  4/  5 1025.1S
HARRISON CRIB              44     150/  5/  7   N/A
BURNHAM HARBOR             45      80/  2/  3   N/A
CALUMET HARBOR             46      80/  4/  6 1024.5S
MICHIGAN CITY              62     110/  7/ 10   N/A
$$

ILZ025>027-034>036-040-047-049-050-058-095>099-200200-
WEST-CENTRAL ILLINOIS

CITY           SKY/WX    TMP DP  RH WIND       PRES   REMARKS
QUINCY         CLEAR     68  31  25 S8        30.13S
GALESBURG*     PTCLDY    65  38  37 SE6       30.15S
MACOMB*        PTCLDY    64  36  36 S9        30.17R
JACKSONVILLE*  MOCLDY    66  40  38 SE7       30.18S
PITTSFIELD*    PTCLDY    67  38  34 SE8       30.16S
$$

ILZ028>032-037-038-041>044-048-051>054-059>061-200200-
CENTRAL ILLINOIS

CITY           SKY/WX    TMP DP  RH WIND       PRES   REMARKS
PONTIAC        MOCLDY    63  39  42 SE7       30.20R
BLOOMINGTON    MOCLDY    61  34  36 SE7       30.21R
DECATUR        MOCLDY    64  35  34 S6        30.20S
PEORIA         MOCLDY    67  35  30 S7        30.18S
LACON*         MOCLDY    64  35  34 SE5       30.18S
LINCOLN*       MOCLDY    64  36  35 SE6       30.18R
SPRINGFIELD    MOCLDY    66  39  37 SE5       30.18S
TAYLORVILLE    MOCLDY    64  39  39 SE6       30.19S
$$

ILZ033-039-045-046-055>057-062-063-200200-
EAST-CENTRAL ILLINOIS

CITY           SKY/WX    TMP DP  RH WIND       PRES   REMARKS
CHAMPAIGN      MOCLDY    59  38  45 E9        30.21S
RANTOUL*       MOCLDY    63  38  40 CALM      30.22S
MATTOON        MOCLDY    64  37  36 CALM      30.21R
PARIS*         PTCLDY    63  40  43 E3        30.23R
$$

ILZ079-100>102-200200-
SOUTHWEST ILLINOIS

CITY           SKY/WX    TMP DP  RH WIND       PRES   REMARKS
ALTON          CLEAR     66  39  37 SE12      30.18S
BELLEVILLE     MOCLDY    66  43  42 E6        30.17S
CAHOKIA*       MOCLDY    66  44  45 E8        30.16S
SPARTA*        MOCLDY    63  46  55 E6        30.18S
$$

ILZ064>066-069>071-074>076-080>082-084>086-088>090-092>094-200200-
SOUTH-CENTRAL ILLINOIS

CITY           SKY/WX    TMP DP  RH WIND       PRES   REMARKS
CARBONDALE     PTCLDY    64  44  48 E8        30.17F
CAIRO*         PTCLDY    70  41  34 E7        30.16S
MARION         PTCLDY    64  45  48 E3        30.19S
MT. VERNON     PTCLDY    63  37  39 CALM      30.21S
CENTRALIA*       N/A     66  39  36 CALM      30.19F
SALEM*         MOCLDY    68  43  40 CALM      30.20S
METROPOLIS*    PTCLDY    67  36  31 NE3       30.17R
$$

ILZ067-068-072-073-078-083-087-091-200200-
SOUTHEAST ILLINOIS

CITY           SKY/WX    TMP DP  RH WIND       PRES   REMARKS
FAIRFIELD*     PTCLDY    63  50  63 CALM      30.20S
HARRISBURG*    PTCLDY    66  43  43 N3        30.20S
ROBINSON*      PTCLDY    65  41  41 E5        30.22R
CARMI*         PTCLDY    65  49  56 N5        30.19S
$$

ABBREVIATIONS USED IN REMARKS
   TC - TEMPERATURE IN CELSIUS
  WCI - WIND CHILL INDEX
   HX - HEAT INDEX
  VSB - VISIBILITY
$$




USA.gov is the U.S. government's official web portal to all federal, state and local government web resources and services.